{"data":{"norad_id":67739,"intl_designator":"2026-026U","name":"STARLINK-36329","alt_names":[],"object_type":"PAYLOAD","status":"ACTIVE","operator":null,"country":"US","launch_date":"2026-02-11","launch_site_code":"AFWTR","launch_vehicle":null,"mission":null,"orbit_class":"UNKNOWN","rcs_meters":null,"size_class":null,"mass_kg":null,"dimensions":null,"purposes":["comms"],"wikipedia_slug":null,"has_3d_model":false,"image_url":null,"decayed_at":null,"tle_current":{"epoch":"2026-05-25T02:46:42.388032Z","epoch_age_seconds":61070,"freshness":"FRESH","line1":"1 67739U 26026U   26145.11576838  .00016589  00000+0  51502-3 0  9999","line2":"2 67739  97.2849 198.7208 0000223 314.9674  45.1551 15.33447301 15849","mean_motion":15.33447301,"eccentricity":2.23e-5,"inclination_deg":97.2849,"raan_deg":198.7208,"arg_perigee_deg":314.9674,"mean_anomaly_deg":45.1551,"bstar":0.00051502,"rev_number":1584,"period_min":93.906063746758,"perigee_km":465.38371441436,"apogee_km":465.6889422448,"semimajor_km":6843.6733283296,"source":"CELESTRAK","updated_at":"2026-05-25T13:38:21.690341Z"}}}